Temperature
18 18 18 18 18 18 18 18 18 18 18 18 18 18 18 18 18 18 18 18 18 18 17 17 17 17 17 17 17 17 17 17 17 16 16 16 16 16 16 16 16 16 16
18 18 18 18 18 18 18 18 18 18 18 18 18 18 18 18 18 17 18 18 18 18 18 17 17 17 17 17 17 17 17 17 16 16 16 16 16 16 16 16 16 16 16
18 18 18 18 18 18 18 18 18 18 18 18 18 18 18 18 17 17 17 18 18 18 17 17 17 17 17 17 17 17 17 17 17 16 16 16 16 16 16 16 16 16 16
18 18 18 18 18 18 18 18 18 18 18 18 18 18 18 18 17 17 17 17 17 17 17 17 17 17 17 17 17 17 17 17 17 17 16 16 16 16 16 16 16 16 16
18 18 18 18 18 18 18 18 18 18 18 18 18 18 18 18 18 17 17 17 17 17 17 17 17 17 17 17 17 17 17 17 17 17 17 16 16 16 16 16 16 16 16
18 18 18 18 18 18 18 18 18 18 18 18 18 18 18 18 18 18 18 17 17 17 17 17 17 17 17 17 17 17 17 17 17 17 16 16 16 16 16 16 16 16 16
18 18 18 18 18 18 18 18 18 18 18 18 18 18 18 18 18 18 18 18 17 17 17 17 17 17 17 17 17 17 17 17 17 16 16 16 16 16 16 16 16 16 16
18 18 18 18 18 18 18 18 18 18 18 18 18 18 18 18 18 18 18 18 18 17 17 17 17 17 17 17 17 17 17 17 17 16 16 16 16 16 16 16 16 16 15
18 18 18 18 18 18 18 18 18 18 18 18 18 18 18 18 18 18 18 18 18 18 17 17 17 17 17 17 17 17 17 16 16 16 16 16 16 16 16 16 16 16 16
18 18 18 18 18 18 18 18 18 18 18 18 18 18 18 18 18 18 18 18 18 18 18 18 17 17 17 17 17 17 17 16 16 16 16 16 16 16 16 16 15 15 15
18 18 18 18 18 18 18 18 18 18 18 18 18 18 19 18 19 19 18 18 18 18 18 18 18 17 17 17 17 17 17 17 16 16 16 16 16 16 16 16 15 15 15
18 18 18 18 18 18 18 18 18 18 18 18 18 18 18 19 19 19 19 19 18 18 18 18 18 17 17 17 17 17 17 17 16 16 16 16 16 16 16 16 15 15 15
18 18 18 18 18 18 18 18 18 17 18 18 18 18 18 19 19 19 19 19 18 18 18 18 18 17 17 17 17 17 17 16 16 16 16 16 16 16 16 15 15 15 15
18 18 18 17 17 18 17 17 17 17 17 17 17 18 18 18 18 19 19 19 18 18 18 18 17 17 17 17 17 16 16 16 16 16 16 16 16 15 15 15 15 15 15
18 18 18 17 17 17 17 17 17 17 17 17 17 17 18 18 18 18 18 18 18 18 17 17 17 17 16 16 16 16 16 16 15 15 15 15 15 15 15 15 15 14 14
18 17 17 17 17 17 17 17 17 17 17 17 17 17 17 17 18 18 18 18 18 18 17 17 16 16 16 15 15 15 15 15 15 15 15 14 14 14 14 14 14 14 14
17 17 17 17 17 17 17 17 17 16 16 16 16 16 17 17 17 17 17 17 17 17 17 16 16 15 15 15 15 15 14 14 14 14 14 14 14 13 13 13 13 13 13
17 17 17 17 16 16 16 16 16 16 16 16 16 16 16 16 16 16 16 16 16 16 16 15 15 15 14 14 14 14 13 13 13 13 13 13 13 13 13 12 12 12 12
17 17 17 16 16 16 16 16 16 16 16 16 16 16 16 16 16 16 16 16 16 15 15 15 14 14 13 13 13 13 13 12 12 12 12 12 12 12 11 11 11 11 11
16 16 16 16 16 16 16 16 16 15 15 15 15 15 15 15 15 15 15 15 15 15 14 14 14 13 13 12 12 12 12 11 11 11 11 11 11 11 10 10 10 10 10
16 16 16 16 16 15 15 15 15 15 15 15 15 15 15 15 14 14 14 14 14 14 14 13 13 12 12 12 12 11 11 11 11 10 10 10 10 10 9 9 9 9 9
16 15 15 15 15 15 15 15 15 15 15 14 14 14 14 14 14 14 13 13 13 13 13 12 12 11 11 11 11 10 10 10 10 10 9 9 9 9 9 8 8 8 8
15 15 15 15 15 15 15 15 15 15 14 14 13 13 13 13 13 13 12 12 12 12 12 11 11 11 10 10 10 9 9 9 9 9 9 9 8 8 8 8 7 7 7
15 15 15 14 14 14 14 14 14 14 13 13 13 12 12 12 11 11 11 11 11 11 11 10 10 10 9 9 9 8 8 8 8 8 8 8 7 7 7 7 7 7 6
14 14 14 14 14 13 13 13 13 13 13 12 12 11 11 11 11 10 10 10 10 9 9 9 9 9 8 8 8 8 8 7 7 7 7 7 6 6 6 6 6 6 6
14 14 13 13 13 13 13 12 12 12 12 11 11 11 10 10 10 10 9 9 9 8 8 8 8 8 7 7 7 7 7 7 6 6 6 6 5 5 5 5 5 5 5
Wind_Speed
3 5 5 6 7 8 7 4 4 4 4 4 4 4 4 4 10 13 13 14 13 12 11 10 10 10 10 10 9 9 9 9 8 8 7 7 6 6 6 5 5 4 4
5 4 3 3 4 6 6 5 5 4 2 3 3 4 4 4 9 13 14 13 13 12 11 11 10 10 10 9 9 9 9 9 9 8 8 7 6 6 6 5 5 5 4
8 5 3 3 4 6 6 4 4 5 4 4 4 3 3 4 7 10 13 13 12 12 12 11 11 11 10 9 9 9 9 9 9 9 8 8 7 6 6 6 6 6 5
9 5 3 4 6 7 5 3 3 3 3 3 4 3 3 4 4 8 10 13 14 13 13 13 13 12 11 10 10 10 9 9 9 9 9 9 8 8 8 8 7 7 7
9 5 3 4 5 4 3 4 3 2 3 3 4 4 3 4 4 6 6 11 13 13 14 15 15 14 13 12 12 11 11 11 11 11 11 10 10 10 10 9 9 9 9
9 6 4 5 4 3 2 3 4 2 1 2 2 4 3 5 4 4 5 8 11 13 14 15 14 14 16 15 14 13 13 13 12 12 12 12 12 12 12 11 11 11 11
9 5 2 4 2 2 3 4 3 3 2 2 1 1 2 4 5 5 4 4 7 10 12 16 15 14 14 17 17 15 14 14 13 13 12 12 12 13 13 13 13 13 13
8 8 4 4 4 3 3 3 3 1 3 3 2 1 0 1 2 5 5 5 5 7 9 14 14 15 15 14 16 18 16 15 14 13 13 13 13 13 14 14 14 14 14
8 5 6 3 4 4 4 4 4 3 2 2 2 2 1 2 2 2 4 4 4 4 4 9 12 14 13 13 14 17 17 16 15 13 13 13 14 14 14 14 14 15 15
7 6 6 4 3 3 5 6 6 3 3 2 2 2 2 2 2 1 2 3 6 5 4 5 7 10 11 10 11 13 16 15 14 12 12 12 12 13 14 15 15 15 15
6 7 6 5 4 3 5 3 3 3 2 3 2 2 2 2 3 3 2 2 2 4 4 3 4 7 9 9 9 10 11 11 10 10 9 9 9 10 11 12 12 13 13
6 7 7 5 5 4 4 4 3 4 2 1 1 1 2 2 2 2 3 3 3 3 3 3 3 6 7 7 7 9 10 9 8 6 5 5 5 6 6 7 8 8 9
6 7 7 6 5 4 4 4 4 3 4 3 2 2 2 1 1 0 2 2 2 2 2 2 2 5 7 9 9 9 9 8 6 5 3 2 2 2 3 4 5 5 6
5 7 7 6 5 5 6 4 4 4 3 3 4 2 2 2 1 1 1 1 1 1 1 2 3 5 8 10 10 10 8 8 7 6 4 3 2 2 2 3 4 4 5
6 7 8 8 6 6 4 5 3 4 4 4 3 3 2 2 1 1 1 1 1 1 1 1 3 4 8 10 9 9 8 9 8 8 7 6 5 5 5 5 5 6 6
6 7 7 8 7 6 5 4 3 3 4 3 2 2 1 2 2 2 2 2 2 1 1 2 3 4 6 7 9 9 9 10 9 8 8 7 7 6 6 6 7 7 8
6 6 6 6 6 5 5 4 3 4 4 3 2 2 3 3 4 4 3 4 4 3 3 3 4 4 5 6 5 5 6 8 8 7 7 7 6 6 6 6 7 8 8
6 6 5 5 5 5 5 5 4 4 4 3 2 3 3 2 4 4 4 4 3 3 3 4 3 4 5 4 3 2 4 5 6 7 7 6 5 5 5 6 8 9 9
5 5 5 5 5 5 5 5 4 5 5 4 5 5 4 5 5 5 5 5 4 4 4 4 3 3 4 3 3 4 5 5 4 6 6 4 3 3 4 6 8 9 10
5 5 5 5 5 4 5 6 6 7 7 7 8 8 7 7 6 5 5 5 5 4 4 4 4 4 4 4 4 3 3 4 3 5 6 4 2 1 3 5 7 7 7
6 5 5 5 4 4 5 8 9 9 9 10 10 11 11 14 15 10 7 6 6 5 4 5 5 5 5 4 4 4 4 3 3 4 3 3 2 2 1 5 7 5 4
5 6 6 6 5 5 9 12 11 10 10 10 10 10 10 12 15 17 17 16 12 8 6 5 5 6 5 5 4 4 4 3 3 4 4 4 4 2 2 2 5 3 0
7 8 7 8 8 8 13 14 14 11 10 9 8 7 8 9 9 9 12 14 15 16 12 8 8 6 5 5 4 4 4 4 3 3 3 3 4 4 6 2 2 4 5
7 7 8 8 9 10 14 16 16 12 10 9 8 8 8 7 6 6 9 9 9 9 10 8 7 6 5 4 4 4 4 4 2 4 5 3 4 4 6 5 5 4 6
7 8 9 9 10 10 12 13 13 10 10 10 9 9 8 8 8 8 8 9 8 6 11 12 11 9 7 6 7 5 5 4 4 4 5 4 5 5 5 3 7 9 12
8 9 9 9 10 9 10 12 11 10 11 10 9 9 11 10 11 9 7 7 7 4 4 4 4 3 3 2 5 5 5 6 5 3 5 5 5 6 5 4 7 12 13
Wind_Direction
153 139 147 164 165 160 166 174 181 147 137 143 147 135 102 93 120 127 140 148 150 153 155 157 160 161 161 162 159 159 162 160 158 161 163 163 165 171 170 169 165 167 169
134 135 143 148 150 157 157 161 156 138 158 148 146 140 141 138 124 130 144 153 160 164 166 169 169 170 171 170 171 173 175 175 173 175 177 178 180 184 185 187 190 190 191
140 148 146 169 161 147 143 157 155 162 173 159 155 152 150 141 138 142 149 160 167 174 177 178 178 179 181 180 183 183 184 186 186 187 188 190 194 198 202 205 207 208 209
150 161 165 171 158 157 165 159 183 169 159 153 156 176 157 145 148 157 164 166 169 177 183 187 186 188 190 192 193 191 193 195 197 198 200 203 206 210 215 218 222 223 222
160 175 161 140 168 173 173 176 160 158 155 162 174 175 170 162 162 185 178 172 172 175 178 188 192 194 198 201 203 202 203 205 206 207 209 213 215 219 224 227 229 232 232
164 182 169 157 187 172 158 111 122 118 123 177 210 173 184 172 175 184 189 179 174 182 180 181 188 200 207 208 210 211 211 212 214 217 219 221 223 226 230 234 235 238 241
164 185 173 153 200 163 156 151 149 156 189 183 168 184 209 191 180 179 196 183 180 184 179 177 186 192 200 212 214 215 216 217 218 221 223 226 229 232 235 237 239 242 245
168 182 178 178 172 150 158 153 138 159 202 184 178 158 230 257 216 198 182 188 186 177 181 186 189 185 192 195 209 214 216 217 219 221 224 229 233 236 238 238 241 245 248
183 188 167 195 165 173 163 180 170 184 207 207 193 166 176 190 212 221 194 182 173 178 189 185 188 189 191 184 190 207 214 217 222 224 227 231 235 238 240 242 244 246 248
183 178 177 180 177 177 159 193 186 187 200 219 209 211 201 149 164 195 236 184 178 181 201 192 184 183 185 177 178 189 205 212 219 225 231 234 238 241 243 245 248 250 251
191 184 180 176 182 189 170 186 152 187 213 220 214 204 212 194 206 183 195 198 189 184 186 174 154 161 166 164 168 173 187 200 210 222 231 239 243 246 248 251 254 255 255
196 191 181 178 188 194 166 171 170 194 216 255 293 282 238 216 219 188 170 182 185 195 165 147 142 141 147 142 144 148 162 180 191 200 215 234 245 250 257 262 265 264 265
191 189 186 177 191 180 167 171 173 202 198 202 240 274 285 270 303 111 145 174 153 168 143 137 117 128 126 118 118 122 137 152 157 164 172 190 225 258 275 282 285 285 287
190 174 173 178 192 184 185 175 184 196 188 192 219 241 305 319 348 11 75 124 151 176 149 137 101 98 104 109 118 115 121 132 129 122 113 99 72 33 4 348 342 337 331
185 179 177 180 188 186 180 169 200 191 163 186 211 201 249 289 307 12 24 87 140 179 196 89 71 70 93 98 111 113 108 118 115 106 97 85 71 59 48 35 26 21 14
190 180 179 176 179 173 174 177 192 172 169 180 183 157 138 335 5 29 17 37 57 85 103 73 75 67 66 91 88 96 103 108 116 110 99 89 78 66 56 48 43 37 29
179 177 175 171 168 167 170 171 185 165 168 169 192 134 106 43 30 25 31 41 42 57 92 87 76 69 65 69 71 81 120 116 114 116 112 104 94 80 68 61 58 52 44
176 168 163 165 170 168 166 163 180 154 137 134 122 101 98 94 70 37 35 45 47 58 89 107 98 81 66 62 52 29 68 92 106 122 126 117 103 94 88 81 74 66 56
165 166 165 165 167 164 158 154 151 125 120 115 105 94 84 80 70 57 46 38 30 51 68 98 99 82 67 44 30 29 44 49 63 116 115 110 106 116 113 107 91 76 63
158 159 155 154 156 157 147 139 128 111 102 90 86 82 73 71 66 60 61 47 42 43 64 83 89 83 64 39 41 17 32 21 21 44 38 32 32 103 116 133 113 90 69
153 146 138 131 135 147 146 131 123 119 109 98 88 82 77 77 70 65 67 55 52 52 60 71 77 71 54 39 22 359 26 15 9 31 15 347 357 27 60 147 137 112 79
128 122 118 118 117 128 123 123 123 116 113 110 105 97 91 84 83 79 75 68 62 64 57 65 72 73 58 36 13 8 18 1 352 4 354 337 2 7 9 102 151 167 259
119 114 113 112 110 106 108 110 113 114 110 109 109 107 101 97 93 94 86 77 65 60 62 76 76 68 64 30 10 5 7 348 320 321 349 340 1 2 358 36 197 247 268
119 118 115 114 110 108 108 108 107 106 103 99 97 97 97 88 83 96 98 87 74 59 66 76 80 71 69 31 7 348 336 325 322 19 25 355 354 346 340 319 291 282 288
124 121 120 120 116 110 110 114 113 108 103 93 86 83 91 85 66 89 104 103 99 90 82 94 100 99 83 51 23 10 3 357 3 29 24 2 347 337 323 324 347 331 317
121 118 113 111 114 114 112 115 115 116 111 106 95 81 75 79 68 73 91 95 93 83 92 113 124 133 133 82 52 39 21 7 359 12 21 2 350 348 329 338 348 333 329
Height
1560 1561 1563 1564 1565 1567 1568 1570 1571 1572 1574 1575 1577 1578 1579 1580 1580 1581 1582 1583 1584 1585 1587 1588 1589 1591 1592 1594 1595 1596 1597 1599 1600 1601 1602 1603 1603 1604 1605 1606 1606 1607 1607
1560 1562 1563 1564 1566 1567 1569 1570 1571 1573 1574 1575 1577 1578 1579 1580 1581 1582 1582 1583 1584 1586 1587 1588 1589 1590 1592 1593 1595 1596 1597 1598 1599 1600 1601 1602 1603 1604 1605 1605 1606 1606 1607
1559 1561 1563 1564 1566 1567 1569 1570 1572 1573 1574 1576 1577 1578 1579 1580 1581 1582 1582 1583 1584 1585 1587 1588 1589 1590 1591 1593 1594 1595 1597 1598 1599 1600 1601 1602 1603 1603 1604 1605 1605 1606 1606
1559 1561 1563 1564 1566 1567 1569 1570 1572 1573 1574 1576 1577 1578 1579 1580 1581 1582 1583 1583 1584 1585 1586 1587 1588 1589 1591 1592 1593 1594 1596 1597 1598 1599 1600 1601 1602 1602 1603 1604 1604 1605 1605
1558 1560 1562 1564 1565 1567 1569 1570 1571 1573 1574 1575 1576 1577 1578 1579 1580 1582 1583 1583 1584 1585 1585 1587 1588 1589 1590 1591 1593 1594 1595 1596 1597 1598 1599 1600 1600 1601 1602 1602 1603 1603 1604
1557 1559 1561 1563 1565 1567 1568 1569 1570 1572 1573 1574 1576 1577 1578 1579 1579 1581 1582 1583 1583 1584 1585 1586 1587 1588 1589 1590 1592 1593 1594 1595 1596 1596 1597 1598 1599 1599 1600 1601 1601 1602 1602
1556 1558 1560 1561 1564 1565 1567 1568 1569 1571 1572 1574 1575 1576 1577 1578 1579 1580 1581 1582 1583 1584 1584 1585 1586 1587 1588 1589 1591 1592 1592 1593 1594 1595 1596 1596 1597 1598 1598 1599 1599 1600 1600
1555 1557 1559 1560 1562 1564 1566 1567 1568 1570 1571 1573 1574 1575 1576 1578 1578 1579 1580 1581 1582 1583 1584 1584 1585 1586 1587 1588 1589 1590 1591 1592 1593 1593 1594 1595 1595 1596 1596 1596 1597 1597 1597
1553 1556 1557 1559 1561 1563 1564 1565 1567 1569 1570 1572 1573 1574 1575 1575 1576 1578 1578 1579 1580 1582 1583 1584 1584 1585 1586 1587 1587 1588 1589 1590 1591 1592 1592 1593 1593 1594 1594 1594 1594 1594 1594
1551 1553 1555 1557 1559 1561 1562 1564 1565 1567 1569 1570 1572 1573 1574 1574 1575 1576 1578 1578 1579 1580 1581 1583 1583 1584 1584 1585 1586 1587 1588 1588 1589 1590 1590 1591 1591 1591 1591 1591 1591 1592 1592
1548 1551 1553 1555 1557 1559 1560 1562 1564 1566 1567 1569 1570 1571 1572 1573 1574 1575 1576 1577 1578 1579 1580 1581 1582 1582 1583 1583 1584 1585 1586 1586 1587 1587 1588 1588 1588 1589 1589 1589 1589 1589 1589
1545 1548 1550 1552 1555 1557 1558 1560 1562 1564 1565 1567 1568 1569 1571 1572 1573 1574 1574 1575 1577 1578 1578 1579 1580 1581 1581 1582 1582 1583 1584 1585 1585 1585 1585 1586 1586 1586 1586 1586 1586 1586 1586
1542 1545 1547 1549 1552 1554 1556 1558 1559 1562 1563 1565 1566 1568 1569 1570 1571 1572 1573 1574 1575 1576 1577 1578 1579 1579 1579 1580 1580 1582 1582 1583 1583 1583 1583 1583 1583 1583 1583 1583 1583 1582 1582
1539 1542 1544 1546 1549 1551 1554 1556 1558 1559 1561 1562 1564 1566 1567 1568 1570 1571 1572 1573 1574 1575 1576 1577 1577 1577 1578 1578 1578 1580 1580 1581 1581 1580 1580 1580 1580 1580 1580 1579 1579 1579 1578
1536 1539 1541 1543 1546 1548 1551 1553 1555 1557 1559 1560 1562 1564 1565 1567 1568 1569 1570 1572 1573 1573 1575 1575 1576 1576 1576 1576 1577 1577 1578 1578 1578 1578 1577 1577 1577 1576 1576 1576 1575 1575 1574
1533 1536 1538 1541 1543 1546 1548 1551 1553 1554 1556 1558 1560 1562 1563 1565 1566 1567 1569 1570 1570 1571 1572 1573 1574 1575 1575 1575 1575 1576 1576 1576 1575 1575 1575 1574 1574 1573 1572 1572 1571 1570 1569
1530 1533 1535 1538 1540 1543 1545 1548 1550 1552 1554 1556 1558 1559 1561 1562 1563 1565 1566 1567 1569 1569 1570 1572 1572 1573 1573 1573 1573 1573 1573 1573 1573 1572 1572 1571 1571 1570 1569 1568 1566 1565 1564
1527 1529 1532 1535 1538 1540 1543 1545 1547 1549 1551 1553 1555 1557 1558 1560 1562 1563 1564 1565 1567 1567 1568 1569 1570 1571 1571 1571 1571 1572 1572 1571 1570 1570 1569 1568 1567 1567 1565 1564 1563 1561 1560
1524 1527 1529 1532 1535 1538 1540 1543 1545 1547 1549 1551 1553 1555 1556 1558 1560 1561 1562 1563 1564 1566 1566 1567 1568 1569 1569 1569 1569 1570 1570 1569 1569 1568 1567 1566 1565 1564 1563 1561 1559 1558 1557
1522 1524 1527 1529 1532 1535 1538 1540 1543 1545 1547 1549 1551 1553 1554 1556 1558 1559 1560 1561 1563 1564 1565 1565 1566 1566 1567 1567 1567 1568 1567 1567 1567 1566 1565 1564 1563 1562 1560 1559 1557 1555 1553
1520 1522 1525 1528 1530 1533 1536 1538 1541 1543 1545 1547 1549 1551 1552 1554 1556 1557 1559 1560 1561 1562 1563 1563 1564 1564 1565 1565 1566 1566 1565 1565 1565 1565 1563 1562 1561 1559 1558 1556 1554 1553 1551
1519 1521 1523 1526 1528 1531 1534 1536 1539 1541 1543 1545 1547 1549 1551 1552 1554 1555 1557 1558 1559 1560 1561 1562 1562 1563 1563 1563 1563 1563 1563 1563 1563 1563 1562 1561 1560 1558 1556 1554 1553 1551 1549
1518 1520 1522 1525 1527 1530 1532 1535 1537 1539 1541 1544 1546 1548 1549 1551 1553 1554 1555 1556 1557 1558 1560 1561 1561 1561 1562 1561 1561 1561 1561 1561 1561 1560 1560 1559 1558 1556 1555 1553 1551 1549 1546
1517 1519 1521 1523 1526 1528 1531 1533 1535 1538 1540 1543 1545 1547 1548 1550 1551 1552 1553 1555 1556 1557 1558 1559 1560 1560 1561 1561 1560 1560 1560 1560 1560 1559 1558 1557 1555 1554 1552 1550 1548 1546 1544
1515 1517 1520 1522 1524 1527 1530 1532 1535 1537 1539 1541 1544 1546 1547 1549 1550 1552 1553 1554 1555 1556 1558 1559 1560 1560 1560 1560 1559 1559 1558 1558 1558 1557 1556 1555 1553 1551 1549 1548 1546 1543 1541
1514 1516 1518 1521 1524 1526 1529 1531 1534 1536 1538 1540 1543 1545 1547 1548 1550 1551 1552 1553 1555 1556 1558 1558 1559 1559 1559 1559 1559 1558 1557 1556 1556 1555 1554 1553 1551 1549 1546 1545 1543 1541 1538